User: anonymous   Login
Location: Bangkok
(13.7500°N, 100.5170°E)
Time: 08:10:12
(UTC+07:00)
Language:

ERBS - Orbit

View from above orbital plane
View from above orbital plane
View from above satellite
View from above satellite

Ground track
Ground track

The orbit data is extracted from the following two-line orbital elements,

1 15354U 84108B   15090.86511004  .00014884  00000-0  44952-3 0  9991
2 15354 057.0138 358.8688 0016800 035.2132 325.0025 15.34405728673687
Epoch (UTC): 31 March 2015 20:45:45
Eccentricity: 0.0016800
inclination: 57.0138°
perigee height: 451 km
apogee height: 474 km
right ascension of ascending node: 358.8688°
argument of perigee: 35.2132°
revolutions per day: 15.34405728
mean anomaly at epoch: 325.0025°
orbit number at epoch: 67368

The dashed part of the orbit path shows where the satellite is in the earth's shadow,  

DLR